SCP
1 1 1 1 1 0 0 0 0 0 0 0 0 0 0 0 0 0 1 1 1 1 1 1 1 1 1 1 1 1 0 0 0 0 0 0 0 0 0 0 0 0 0
1 1 1 1 1 1 1 0 0 0 0 0 0 0 0 0 0 0 1 1 1 1 1 1 1 1 1 1 1 1 1 1 1 1 1 0 0 0 0 0 0 0 0
1 1 1 1 1 1 1 1 1 1 0 0 0 0 0 0 0 0 0 1 1 1 1 1 1 1 1 1 1 1 1 1 1 1 1 0 0 0 0 0 0 0 0
1 1 1 1 1 1 1 1 1 1 1 1 0 0 0 0 0 0 0 0 0 0 1 1 1 1 1 1 1 1 1 1 0 0 0 0 0 0 0 0 0 0 0
1 1 1 1 1 1 1 1 1 1 1 1 0 0 0 0 0 0 0 0 0 0 0 0 0 0 0 1 1 1 1 0 0 0 0 0 0 0 0 0 0 0 0
1 1 1 1 1 1 1 1 1 1 1 1 0 0 0 0 0 0 0 0 0 0 0 0 0 0 0 0 0 0 0 0 0 0 0 0 0 0 0 0 0 0 0
1 1 1 1 1 1 1 1 1 1 1 0 0 0 0 0 0 0 0 0 0 0 0 0 0 0 0 0 0 0 0 0 0 0 0 0 0 0 0 0 0 0 0
0 0 1 1 0 0 0 0 0 0 0 0 0 0 0 0 0 0 0 0 0 0 0 0 0 0 0 0 0 0 0 0 0 0 0 0 0 0 0 0 0 0 0
0 0 0 0 0 0 0 0 0 0 0 0 0 0 0 0 0 0 0 0 0 0 0 0 0 0 0 0 0 0 0 0 0 0 0 0 0 0 0 0 0 0 0
0 0 0 0 0 0 0 0 0 0 0 0 0 0 0 0 0 0 0 0 0 0 0 0 0 0 0 0 0 0 0 0 0 0 0 0 0 0 0 0 0 0 0
0 0 0 0 0 0 0 0 0 0 0 0 0 0 0 0 0 0 0 0 0 0 0 0 0 0 0 0 0 0 0 0 0 0 0 0 0 0 0 0 0 0 0
0 0 0 0 0 0 0 0 0 0 0 0 0 0 0 0 0 0 0 0 0 0 0 0 0 0 0 0 0 0 0 0 0 0 0 0 0 0 0 0 0 0 0
0 0 0 0 0 0 0 0 0 0 0 0 0 0 0 0 0 0 0 0 0 0 0 0 0 0 0 0 0 0 0 0 0 0 0 0 0 0 0 0 0 0 0
0 0 0 0 0 0 0 0 0 0 0 0 0 0 0 0 0 0 0 0 0 0 0 0 0 0 0 0 0 0 0 0 0 0 0 0 0 0 0 0 0 0 0
0 0 0 0 0 0 0 0 0 0 0 0 0 0 0 0 0 0 0 0 0 0 0 0 0 0 0 0 0 0 0 0 0 0 0 0 0 0 0 0 0 0 0
0 0 0 0 0 0 0 0 0 0 0 0 0 0 0 0 0 0 0 0 0 0 0 0 0 0 0 0 0 0 0 0 0 0 0 0 0 0 0 0 0 0 0
0 0 0 0 0 0 0 0 0 0 0 0 0 0 0 0 0 0 0 0 0 0 0 0 0 0 0 0 0 0 0 0 0 0 0 0 0 0 0 0 0 0 0
0 0 0 0 0 0 0 0 0 0 0 0 0 0 0 0 0 0 0 0 0 0 0 0 0 0 0 0 0 0 0 0 0 0 0 0 0 0 0 0 0 0 0
0 0 0 0 0 0 0 0 0 0 0 0 0 0 0 0 0 0 0 0 0 0 0 0 0 0 0 0 0 0 0 0 0 0 0 0 0 0 0 0 0 0 0
0 0 0 0 0 0 0 0 0 0 0 0 0 0 0 0 0 0 0 0 0 0 0 0 0 0 0 0 0 0 0 0 0 0 0 0 0 0 0 0 0 0 0
0 0 0 0 0 0 0 0 0 0 0 0 0 0 0 0 0 0 0 0 0 0 0 0 0 0 0 0 0 0 0 0 0 0 0 0 0 0 0 0 0 0 0
0 0 0 0 0 0 0 0 0 0 0 0 0 0 0 0 0 0 0 0 0 0 0 0 0 0 0 0 0 0 0 0 0 0 0 0 0 0 0 0 0 0 0
0 0 0 0 0 0 0 0 0 0 0 0 0 0 0 0 0 0 0 0 0 0 0 0 0 0 0 0 0 0 0 0 0 0 0 0 0 0 0 0 0 0 0
0 0 0 0 0 0 0 0 0 0 0 0 0 0 0 0 0 0 0 0 0 0 0 0 0 0 0 0 0 0 0 0 0 0 0 0 0 0 0 0 0 0 0
0 0 0 0 0 0 0 0 0 0 0 0 0 0 0 0 0 0 0 0 0 0 0 0 0 0 0 0 0 0 0 0 0 0 0 0 0 0 0 0 0 0 0
0 0 0 0 0 0 0 0 0 0 0 0 0 0 0 0 0 0 0 0 0 0 0 0 0 0 0 0 0 0 0 0 0 0 0 0 0 0 0 0 0 0 0
Wind_Speed
1 1 1 0 1 0 1 2 2 3 3 3 3 3 3 3 3 2 2 7 7 6 6 6 6 6 7 8 8 8 9 10 10 10 9 9 9 8 8 7 7 7 6
1 1 1 0 1 1 1 1 2 2 1 2 3 3 3 3 2 2 1 3 5 4 4 4 4 5 6 7 8 9 9 10 10 10 10 10 10 10 9 9 8 8 7
2 1 1 1 1 1 1 1 2 2 2 2 2 2 2 3 2 2 1 1 2 4 3 3 3 4 5 7 8 9 9 9 10 10 11 11 11 11 10 10 9 9 8
2 2 1 1 2 2 1 1 1 2 2 2 1 1 1 1 2 1 1 1 1 0 2 2 3 3 4 5 7 8 8 9 9 10 10 10 10 10 10 10 10 9 9
2 2 1 1 2 1 1 2 1 1 2 2 2 1 1 1 1 1 1 1 2 2 1 1 2 2 3 3 4 5 6 7 8 8 9 9 9 9 10 10 11 10 10
2 2 1 2 2 1 1 2 2 2 1 2 3 1 1 1 0 0 1 1 2 2 2 2 1 1 2 2 2 2 4 5 7 8 9 9 9 9 10 10 11 11 11
3 2 2 2 2 1 1 2 2 2 2 1 1 1 1 1 1 1 1 2 2 3 3 3 2 2 1 2 2 2 3 4 6 7 7 8 8 8 9 9 10 11 12
3 2 3 2 3 1 1 2 2 2 2 1 1 1 1 1 2 2 2 2 3 3 4 5 4 4 3 2 3 3 3 2 4 6 7 7 8 8 9 8 9 9 9
3 3 3 3 3 3 2 3 3 3 2 2 1 1 1 0 1 2 3 3 4 4 3 4 5 5 4 3 3 5 5 3 1 4 6 6 7 7 8 8 8 8 8
2 3 3 3 4 3 3 4 3 3 2 2 1 1 1 1 0 1 2 3 4 4 4 3 4 4 5 4 5 8 8 7 4 1 2 5 6 6 6 6 7 7 8
2 3 3 3 3 3 3 4 3 3 2 2 2 1 1 1 0 1 1 1 2 2 3 3 3 3 4 4 3 7 9 8 7 6 5 3 3 5 6 6 7 7 7
3 5 5 4 4 3 3 3 3 3 2 2 2 2 1 1 0 0 1 1 1 1 2 2 2 2 3 3 5 8 9 9 9 8 8 7 6 5 5 5 6 6 6
3 4 5 4 3 3 3 3 2 2 3 3 2 2 1 1 1 1 1 1 1 1 1 2 2 2 2 3 4 7 8 9 9 9 9 8 7 6 5 6 7 6 6
3 3 3 3 3 4 4 3 3 3 3 3 3 2 1 1 1 0 0 1 1 1 1 2 2 3 2 3 4 5 5 10 10 10 9 9 8 7 7 7 7 8 8
3 3 3 3 4 4 3 3 2 3 3 3 3 3 2 2 1 1 0 1 2 2 1 1 1 2 2 2 4 3 4 8 9 9 9 9 8 8 8 8 8 8 8
3 3 3 4 4 4 4 4 2 3 3 3 2 3 3 2 2 2 1 0 0 1 2 2 1 1 2 3 5 4 4 8 8 7 7 7 7 7 7 7 7 7 7
4 4 4 4 4 4 4 4 3 3 4 4 4 4 4 4 3 2 2 1 2 2 3 2 2 2 2 3 3 3 3 4 4 7 7 7 7 7 6 6 6 6 6
4 4 4 4 5 5 5 5 5 5 5 5 5 5 5 4 4 3 2 3 2 2 3 4 2 2 2 2 2 2 3 4 3 5 5 6 5 5 5 4 3 3 3
4 4 4 5 5 5 6 6 6 5 5 5 5 5 5 5 5 3 3 3 2 3 3 3 3 1 1 1 2 2 3 2 3 4 4 3 3 2 2 2 2 1 2
4 4 5 5 5 6 7 7 6 5 5 5 5 5 5 5 4 3 3 3 3 3 3 3 3 2 2 1 2 2 2 1 1 2 3 3 3 3 2 3 3 3 3
5 4 5 5 6 6 8 8 5 6 5 5 5 6 6 7 7 4 3 3 3 2 2 3 3 3 2 2 1 1 2 1 1 1 1 2 2 2 2 4 5 5 5
5 5 5 6 7 7 10 11 7 4 4 5 5 4 5 7 8 7 7 5 3 2 2 2 3 3 3 2 1 1 2 1 0 1 1 1 2 2 3 3 6 7 7
4 5 5 6 6 7 11 11 11 5 4 5 5 4 5 6 6 4 4 4 5 5 4 3 4 3 3 1 1 1 1 0 0 1 1 1 1 2 3 4 8 9 9
3 3 4 5 4 6 9 10 10 4 4 5 5 6 6 6 7 5 3 5 5 4 3 3 3 3 2 1 1 0 1 1 1 1 1 1 2 2 2 2 9 11 11
2 3 3 4 4 5 8 10 10 2 3 4 5 6 6 6 9 7 4 4 4 3 4 5 4 2 1 1 1 1 1 0 1 1 1 1 1 1 2 2 5 11 11
2 3 3 3 3 4 6 9 9 3 3 2 3 5 9 8 9 8 4 4 4 3 2 2 2 1 2 2 1 0 1 1 1 1 1 1 1 1 2 2 2 3 6
Wind_Direction
353 32 63 264 275 251 211 244 244 249 268 281 292 295 294 314 344 29 135 156 170 189 200 210 222 229 231 231 228 224 223 219 217 211 207 203 203 204 205 203 199 196 195
335 347 265 272 287 301 279 270 279 273 281 298 301 318 325 334 345 353 80 161 180 192 193 204 222 235 240 240 231 225 228 225 218 213 209 206 205 206 206 206 202 198 194
331 301 259 235 306 281 274 285 309 309 289 286 303 310 328 337 342 350 359 348 204 203 208 220 235 243 244 245 236 229 225 222 218 215 212 210 208 207 207 206 205 203 199
327 310 311 14 312 295 310 293 303 307 309 309 314 309 321 323 315 323 339 336 341 300 223 237 249 257 257 252 245 235 227 223 220 214 212 209 208 210 209 210 210 207 204
341 328 1 345 305 315 339 322 343 309 299 298 282 267 266 260 284 314 5 4 17 22 15 305 265 269 269 258 251 240 229 224 223 214 211 209 207 209 211 214 213 211 207
351 341 24 351 329 348 340 335 322 303 288 292 295 296 276 260 142 39 357 20 42 32 20 11 7 312 317 307 287 264 242 233 224 214 212 210 206 206 210 213 215 213 209
0 358 360 355 340 349 336 335 312 302 285 289 282 272 257 223 155 95 58 35 35 32 34 31 32 16 354 350 344 318 271 248 230 217 212 209 205 203 206 210 215 216 213
10 10 9 356 338 334 352 341 331 320 303 301 288 285 222 169 60 61 73 64 42 41 38 35 35 31 19 23 12 8 343 291 244 227 217 207 205 201 203 205 206 201 200
28 13 13 0 348 355 8 5 357 341 323 314 329 303 304 314 90 63 62 63 54 44 41 39 37 33 32 27 27 28 30 18 289 232 216 210 202 200 202 202 202 201 200
31 28 22 17 8 11 14 1 3 338 331 326 320 311 310 356 128 121 65 55 54 44 39 38 35 32 31 31 37 41 44 41 42 55 209 198 187 178 174 176 186 190 189
40 32 31 24 19 22 18 0 359 352 348 337 331 331 318 295 189 190 176 113 62 43 38 43 39 35 31 31 35 46 46 46 49 61 71 99 143 165 169 178 185 182 178
42 31 36 25 20 16 9 0 356 352 355 350 340 335 331 327 316 212 167 147 98 53 42 46 42 42 38 33 48 54 52 55 58 64 72 75 85 102 135 154 157 162 167
40 21 24 20 15 3 360 1 3 357 1 355 343 336 335 324 313 297 162 154 108 91 63 55 41 40 50 52 54 60 59 62 61 61 67 74 85 94 97 104 109 117 119
39 20 19 20 14 10 11 7 6 10 7 357 4 354 338 351 345 350 187 156 149 123 77 67 43 39 50 69 65 66 67 68 67 66 67 70 72 82 90 99 105 107 110
37 26 20 18 18 15 11 15 22 21 16 15 15 7 11 7 7 18 354 189 163 159 123 88 69 41 46 74 75 76 79 77 74 72 71 70 71 76 86 91 98 105 110
27 26 22 21 21 18 15 18 21 28 31 24 22 19 13 10 21 24 24 18 31 133 122 93 85 73 62 76 86 87 85 90 79 76 74 73 74 83 90 95 100 106 111
26 28 29 31 30 29 24 18 26 32 34 30 27 35 31 25 18 18 34 56 69 92 121 115 99 100 82 83 89 96 102 92 87 85 83 80 77 81 88 93 96 103 113
27 28 34 34 36 36 28 27 31 36 38 34 34 35 29 32 30 27 41 56 75 93 122 128 114 101 92 113 109 107 105 103 101 97 93 88 88 89 92 97 106 120 135
29 29 36 37 38 35 30 30 33 36 40 40 42 43 37 37 37 38 50 60 71 89 107 124 119 113 109 133 122 105 100 99 121 125 126 117 110 111 118 127 140 151 169
37 32 31 38 41 43 34 28 27 41 47 48 53 54 48 45 45 43 58 62 81 92 111 120 122 119 105 126 121 119 105 107 113 127 128 147 163 177 187 202 207 203 206
41 39 37 42 42 46 29 18 20 44 45 50 57 62 66 64 57 52 68 71 84 99 117 123 124 118 119 129 146 164 127 135 127 133 152 182 175 193 206 219 217 212 212
39 41 42 51 48 39 18 19 20 23 39 46 49 54 79 69 64 63 71 75 81 100 110 110 110 115 108 104 104 123 119 115 113 188 136 237 188 199 210 208 205 204 212
48 47 50 60 59 37 21 16 12 9 42 47 44 40 50 55 47 47 73 82 73 67 75 97 105 99 105 91 67 66 89 79 196 211 189 231 232 222 221 202 196 204 210
58 51 57 61 62 42 23 16 2 19 50 56 54 50 52 44 30 24 54 72 75 63 69 90 94 95 96 71 15 287 194 189 219 237 219 233 234 235 236 194 203 207 213
70 62 67 66 61 48 25 18 8 21 56 59 59 51 46 49 25 32 50 66 77 85 86 90 96 102 91 24 12 19 351 53 253 227 216 278 279 257 242 225 213 215 223
90 80 66 62 62 56 29 23 13 13 49 67 86 81 57 45 33 32 41 53 62 54 71 92 110 184 202 209 244 289 324 346 339 346 6 321 301 312 297 262 227 211 231